This demonstration page uses our WeatherBlox Daily Observations layout. Learn more.

Left ArrowRight Arrow

47.50024, -111.30081

Hourly Observations for April 2, 2016

Temp ( °F °C ) Dew Point ( °F °C ) Humidity (%) Winds ( mph kmh ) Pressure ( in mb ) Visibility ( mi km ) Precip ( " mm )
12:53 am 00:53 Clear 41 5 30 -1.1 65 65 SSW 13 20 30.09 1019 10 16 0.00 0.00
1:53 am 01:53 Clear 41 5 30 -1.1 65 65 SSW 13 20 30.07 1018 10 16 0.00 0.00
2:53 am 02:53 Clear 39 3.9 30 -1.1 70 70 SSW 13 20 30.06 1018 10 16 0.00 0.00
3:53 am 03:53 Clear 40 4.4 30 -1.1 68 68 SSW 13 20 30.04 1017 10 16 0.00 0.00
4:53 am 04:53 Clear 39 3.9 30 -1.1 70 70 SSW 14 22 30.03 1017 10 16 0.00 0.00
5:53 am 05:53 Clear 41 5 31 -0.6 67 67 SSW 13 20 30.01 1016 10 16 0.00 0.00
6:53 am 06:53 Clear 42 5.6 31 -0.6 65 65 SSW 13 20 30.00 1016 10 16 0.00 0.00
7:53 am 07:53 Sunny 46 7.8 33 0.6 61 61 SSW 14 22 30.01 1016 10 16 0.00 0.00
8:53 am 08:53 Sunny 52 11.1 33 0.6 49 49 SSW 16 26 29.99 1016 10 16 0.00 0.00
9:53 am 09:53 Sunny 57 13.9 31 -0.6 37 37 SW 21 33 29.98 1015 10 16 0.00 0.00
10:53 am 10:53 Sunny 61 16.1 30 -1.1 31 31 WSW 22 35 29.97 1015 10 16 0.00 0.00
11:53 am 11:53 Sunny 64 17.8 29 -1.7 27 27 SW 24 39 29.94 1014 10 16 0.00 0.00
12:53 pm 12:53 Sunny 66 18.9 29 -1.7 25 25 WSW 22 35 29.90 1012 10 16 0.00 0.00
1:53 pm 13:53 Sunny 68 20 27 -2.8 21 21 WSW 29 46 29.86 1011 10 16 0.00 0.00
2:53 pm 14:53 Sunny 70 21.1 27 -2.8 20 20 WSW 25 41 29.84 1010 10 16 0.00 0.00
3:53 pm 15:53 Sunny 71 21.7 24 -4.4 17 17 WSW 23 37 29.82 1010 10 16 0.00 0.00
4:53 pm 16:53 Sunny 70 21.1 23 -5 17 17 WSW 28 44 29.80 1009 10 16 0.00 0.00
5:53 pm 17:53 Sunny 65 18.3 23 -5 20 20 W 22 35 29.82 1010 10 16 0.00 0.00
6:53 pm 18:53 Sunny 63 17.2 27 -2.8 26 26 W 20 31 29.82 1010 10 16 0.00 0.00
7:53 pm 19:53 Sunny 61 16.1 28 -2.2 29 29 WSW 20 31 29.82 1010 10 16 0.00 0.00
8:53 pm 20:53 Clear 58 14.4 30 -1.1 35 35 WSW 22 35 29.82 1010 10 16 0.00 0.00
9:53 pm 21:53 Clear 55 12.8 30 -1.1 38 38 WSW 12 19 29.85 1011 10 16 0.00 0.00
10:53 pm 22:53 Clear 56 13.3 31 -0.6 39 39 WSW 18 30 29.81 1010 10 16 0.00 0.00
11:53 pm 23:53 Clear 56 13.3 31 -0.6 39 39 WSW 18 30 29.80 1009 10 16 0.00 0.00

Powered by AerisWeather